Location: Bastelaar
(51.0950°N, 3.8602°E)
Time: 01:40:51
(UTC+00:00)

MOS 1 Rocket - Pass Details

Date: 18 November 2025
Orbit: 610 x 813 km, 97.4° (Epoch: 13 December)

Event Time Altitude Azimuth Distance (km) Brightness Sun altitude
Rises 17:39:31 0° 168° (SSE) 2,882 6.5 -16.5°
Reaches altitude 10° 17:41:39 10° 170° (S) 1,995 5.7 -16.8°
Maximum altitude 17:45:59 79° 257° (WSW) 661 3.2 -17.5°
Drops below altitude 10° 17:50:34 10° 345° (NNW) 2,106 5.9 -18.2°
Sets 17:52:53 0° 346° (NNW) 3,057 6.7 -18.5°
